#timestamp,LO_Frequency,Hit 
1501347615.2,286046962.1,N
1501347635.0,286046962.2,N
1501347635.9,286046962.2,N
1501347655.7,286046962.1,N
1501347675.6,286046963.7,N
1501347695.4,286046965.4,N
1501347715.2,286046962.5,N
1501347735.1,286046958.5,N
1501347736.0,286046958.5,N
1501347755.8,286046958.1,N
1501347775.7,286046960.4,N
1501347795.5,286046960.0,N
1501347815.3,286046958.5,N
1501347835.2,286046958.6,N
1501347855.9,286046961.1,N
1501347875.7,286046959.0,N
1501347895.6,286046960.9,N
1501347915.4,286046959.9,N
1501347935.2,286046960.9,N
1501347955.0,286046959.0,N
1501347956.0,286046959.0,N
1501347975.8,286046960.4,N
1501347995.6,286046962.4,N
1501348015.4,286046962.1,N
1501348035.3,286046963.7,N
1501348055.1,286046963.9,N
1501348075.8,286046962.1,N
1501348095.7,286046960.5,N
1501348115.5,286046960.6,N
1501348135.3,286046959.3,N
1501348155.2,286046958.4,N
1501348175.9,286046959.8,N
1501348195.7,286046960.1,N
1501348215.6,286046962.4,N
1501348235.4,286046961.5,N
1501348255.2,286046962.2,N
1501348275.1,286046961.4,N
1501348276.0,286046961.4,N
1501348295.8,286046962.8,N
1501348315.6,286046962.6,N
1501348335.4,286046964.0,N
1501348355.3,286046963.5,N
1501348375.1,286046965.8,N
1501348395.8,286046965.9,N
1501348415.7,286046963.2,N
1501348435.5,286046964.0,N
1501348455.3,286046966.0,N
1501348475.2,286046965.9,N
1501348495.9,286046967.6,N
1501348515.7,286046967.1,N
1501348535.6,286046964.7,N
1501348555.4,286046964.8,N
1501348575.2,286046963.2,N
1501348595.0,286046964.3,N
1501348596.0,286046964.3,N
1501348615.8,286046964.0,N
1501348635.6,286046965.2,N
1501348655.4,286046964.6,N
1501348675.3,286046967.3,N
1501348695.1,286046967.3,N
1501348715.8,286046964.5,N
1501348735.7,286046965.7,N
1501348755.5,286046963.2,N
1501348775.3,286046963.6,N
1501348795.2,286046964.9,N
1501348815.9,286046966.8,N
1501348835.7,286046968.2,N
1501348855.6,286046966.6,N
1501348875.4,286046967.3,N
1501348895.2,286046965.7,N
1501348915.1,286046963.0,N
1501348916.0,286046963.0,N
1501348935.8,286046965.9,N
1501348955.6,286046967.6,N
1501348975.5,286046965.7,N
1501348995.3,286046965.9,N
1501349015.1,286046965.1,N
1501349035.8,286046965.4,N
1501349055.7,286046964.7,N
1501349075.5,286046964.7,N
1501349095.3,286046967.6,N
1501349115.2,286046967.5,N
1501349135.0,286046967.0,N
1501349135.9,286046967.0,N
1501349155.7,286046966.7,N
1501349175.6,286046966.2,N
1501349195.4,286046966.3,N
1501349215.2,286046964.5,N
1501349235.1,286046967.2,N
1501349236.0,286046967.2,N
1501349255.8,286046966.9,N
1501349275.6,286046966.8,N
1501349295.5,286046966.7,N
1501349315.3,286046967.4,N
1501349335.1,286046967.5,N
1501349355.8,286046967.0,N
1501349375.7,286046966.2,N
1501349395.5,286046968.5,N
1501349415.3,286046970.7,N
1501349435.2,286046967.9,N
1501349455.9,286046969.2,N
1501349475.7,286046968.7,N
1501349495.6,286046970.6,N
1501349515.4,286046971.4,N
1501349535.2,286046971.5,N
1501349555.1,286046971.2,N
1501349556.0,286046971.2,N
1501349575.8,286046971.4,N
1501349595.6,286046973.5,N
1501349615.5,286046974.0,N
1501349635.3,286046971.7,N
1501349655.1,286046972.3,N
1501349675.8,286046972.4,N
1501349695.7,286046970.1,N
1501349715.5,286046971.7,N
1501349735.3,286046971.7,N
1501349755.2,286046972.4,N
1501349775.9,286046969.3,N
1501349795.7,286046969.4,N
1501349815.6,286046972.1,N
1501349835.4,286046970.2,N
1501349855.2,286046969.3,N
1501349875.1,286046970.8,N
1501349876.0,286046970.8,N
1501349895.8,286046968.4,N
1501349915.6,286046966.1,N
1501349935.5,286046970.5,N
1501349955.3,286046969.5,N
1501349975.1,286046972.0,N
1501349995.9,286046972.4,N
1501350015.7,286046971.3,N
1501350035.5,286046971.1,N
1501350055.3,286046971.5,N
1501350075.2,286046973.5,N
1501350095.0,286046973.9,N
1501350095.9,286046973.9,N
1501350115.7,286046973.1,N
1501350135.6,286046975.0,N
1501350155.4,286046972.6,N
1501350175.2,286046975.6,N
1501350195.1,286046975.4,N
1501350196.0,286046975.4,N
1501350215.8,286046974.2,N
1501350235.6,286046976.8,N
1501350255.5,286046976.5,N
1501350275.3,286046974.1,N
1501350295.1,286046977.2,N
1501350315.9,286046976.0,N
1501350335.7,286046976.9,N
1501350355.5,286046972.5,N
1501350375.3,286046973.9,N
1501350395.2,286046971.6,N
1501350415.0,286046969.3,N
1501350415.9,286046969.3,N
1501350435.7,286046972.3,N
1501350455.6,286046971.9,N
1501350475.4,286046971.4,N
1501350495.2,286046973.7,N
1501350515.1,286046971.3,N
1501350516.0,286046971.3,N
1501350535.8,286046973.5,N
1501350555.6,286046970.9,N
1501350575.5,286046973.4,N
1501350595.3,286046970.9,N
1501350615.1,286046971.3,N
1501350635.9,286046971.7,N
1501350655.7,286046969.8,N
1501350675.5,286046967.8,N
1501350695.4,286046972.3,N
1501350715.2,286046971.7,N
1501350735.0,286046973.1,N
1501350735.9,286046973.1,N
1501350755.8,286046971.3,N
1501350775.6,286046970.9,N
1501350795.4,286046971.9,N
1501350815.2,286046969.3,N
1501350835.1,286046971.7,N
1501350836.0,286046971.7,N
1501350855.8,286046971.4,N
1501350875.6,286046973.3,N
1501350895.5,286046975.2,N
1501350915.3,286046973.0,N
1501350935.1,286046973.2,N
1501350955.9,286046973.4,N
1501350975.7,286046973.0,N
1501350995.5,286046972.5,N
1501351015.4,286046974.6,N
1501351035.2,286046977.1,N
1501351055.0,286046977.2,N
1501351055.9,286046977.2,N
1501351075.8,286046975.2,N
1501351095.6,286046974.4,N
1501351115.4,286046975.2,N
1501351135.2,286046975.5,N
1501351155.1,286046975.5,N
1501351156.0,286046975.5,N
1501351175.8,286046973.1,N
1501351195.6,286046972.9,N
